www.pogodaiklimat.ru

Погода и климат >> Архив погоды >> Германия >> Лар


ПОГОДА в Ларе

  • Прогноз погоды в Ларе
  • Монитор погоды в Ларе

АРХИВ ПОГОДЫ в Ларе

Время (UTC), дата Ветер
(напр.,м/с)
 
Видим.   Явления Облачность Т
(С)
Тd
(С)
f
(%)
Тe
(С)
Тes
(С)
Комфортность P
(гПа)
Po
(гПа)
Тmin
(С)
Tmax
(С)
R
(мм)
R24
(мм)
S
(см)
01 12.08 ЮВ 1 19 км 10/10 330 м
[]
+15.3 +14.3 94 +16 +16 1018.6 1000.0
02 12.08 ЮВ 2 13 км в посл. час дождь {морось} 10/10 870 м
[]
+15.2 +14.3 94 +15 +15 1018.4 999.8
03 12.08 В 1 8000 м в посл. час дождь {морось} 10/10 570 м
[]
+15.1 +14.2 94 +16 +16 1017.7 999.1 0.1
04 12.08 штиль 0 15 км 10/10 570 м
[]
+15.0 +14.1 94 +15 +15 1018.2 999.6
05 12.08 В 1 16 км 8/8 600 м
[]
+14.7 +13.8 94 +15 +15 1018.5 999.9
06 12.08 В 1 18 км {дождь, морось} 6/0
[]
+16.1 +13.9 87 +17 +18 1018.1 999.6 +14.7 +16.2 1
07 12.08 В 1 22 км 10/0 2000 м
[]
+17.2 +13.6 79 +18 +21 1018.1 999.6
08 12.08 ЮВ 1 30 км 10/0 2000 м
[]
+17.6 +13.0 74 +19 +23 1018.4 999.9
09 12.08 В 1 35 км 10/10 660 м
[]
+17.8 +12.7 72 +19 +19 1019.8 1001.3
10 12.08 В 1 16 км слаб. дождь {морось} 10/0 2000 м
[]
+17.4 +13.4 77 +18 +26 1018.6 1000.1
11 12.08 СЗ 1 60 км в посл. час дождь {морось} 9/9 1500 м
[]
+19.1 +11.7 62 +21 +23 комфорт 1017.9 999.5
12 12.08 З 2 60 км {дождь, морось} 10/10 800 м
[]
+19.2 +12.1 63 +21 +21 комфорт 1017.5 999.2 0.1
13 12.08 ЮЗ 2 70 км 10/10 1260 м
[]
+20.5 +12.8 61 +23 +23 комфорт 1017.2 998.9
14 12.08 ЮЗ 2 65 км 10/10 870 м
[]
+21.0 +12.8 59 +24 +24 комфорт 1016.2 998.0
15 12.08 ЮЗ 3 70 км 10/10 1020 м
[]
+21.4 +13.4 60 +24 +24 комфорт 1015.3 997.1
16 12.08 ЮЗ 3 70 км 5/5 1080 м
[]
+21.4 +14.0 63 +24 +26 комфорт 1015.6 997.4
17 12.08 ЮЗ 4-6
{6}
70 км 1/1 960 м
[]
+21.5 +13.9 62 +24 +25 комфорт 1015.7 997.5
18 12.08 ЮЗ 3 70 км 9/9 1500 м
[]
+20.3 +14.0 67 +23 +23 комфорт 1016.1 997.9 +15.9 +22.6
19 12.08 В 3 30 км в посл. час дождь {морось} 9/0 2000 м
[]
+15.8 +14.4 91 +15 +15 1017.7 999.2
20 12.08 Ю 2 35 км в посл. час дождь {морось} 10/0
[]
+15.8 +14.5 92 +16 +16 1018.1 999.5
21 12.08 Ю 3 50 км {дождь, морось} 4/0
[]
+15.1 +13.5 90 +14 +14 1018.8 1000.2 3
22 12.08 ЮВ 1-2
{4}
35 км ясно +14.0 +12.8 92 +14 +14 1019.3 1000.6
23 12.08 Ю 2-3
{3}
55 км ясно +14.2 +12.5 90 +14 +14 1019.4 1000.7
00 13.08 Ю 2 35 км {дождь, морось} 9/0
[]
+14.8 +12.5 86 +14 +14 1019.1 1000.5
01 13.08 Ю 3-4
{4}
30 км ясно +13.9 +12.1 89 +13 +13 1018.9 1000.2
02 13.08 Ю 2-3
{4}
30 км ясно +13.8 +11.7 87 +13 +13 1019.0 1000.3
03 13.08 Ю 2-2
{4}
20 км ясно +12.0 +11.1 94 +11 +11 1019.3 1000.5
04 13.08 СЗ 2-3
{3}
22 км 3/0
[]
+12.1 +11.1 94 +11 +11 1019.6 1000.8
05 13.08 В 1-2
{3}
18 км 5/0
[]
+11.9 +11.0 94 +12 +12 1020.0 1001.1
06 13.08 ЮЗ 2 28 км 5/0
[]
+14.5 +12.4 87 +14 +15 1020.5 1001.8 +11.1 +20.1 3
07 13.08 ЮЗ 3-4
{6}
16 км 1/0
[]
+16.2 +12.1 77 +16 +19 1020.8 1002.2
08 13.08 З 3 40 км 6/6 840 м
[]
+17.3 +12.1 71 +17 +20 1021.1 1002.6
09 13.08 З 3 45 км 9/9 800 м
[]
+17.4 +10.9 66 +17 +18 1021.0 1002.5
10 13.08 С 2 45 км 10/10 870 м
[]
+17.6 +10.8 64 +18 +18 1021.1 1002.6
11 13.08 С 4 17 км 9/9 1500 м
[]
+18.8 +9.8 56 +19 +20 1020.8 1002.4
12 13.08 СЗ 2 26 км 9/9 1260 м
[]
+19.9 +8.0 46 +21 +23 комфорт 1020.1 1001.7
13 13.08 СЗ 2 40 км 9/9 1470 м
[]
+20.4 +8.1 45 +22 +24 комфорт 1019.7 1001.4
14 13.08 З 2 40 км 10/0 2000 м
[]
+21.2 +8.4 44 +22 +28 комфорт 1019.4 1001.1
15 13.08 СЗ 3 30 км 10/10 1500 м
[]
+21.3 +7.6 41 +22 +22 комфорт 1018.9 1000.6
16 13.08 С 2 50 км 10/0
[]
+20.3 +8.2 46 +22 +24 комфорт 1019.0 1000.7
17 13.08 В 1 50 км 10/0
[]
+20.1 +7.3 43 +22 +23 комфорт 1018.7 1000.4
18 13.08 В 1 50 км 10/0
[]
+20.0 +9.1 49 +22 +22 комфорт 1018.8 1000.5 +14.5 +21.6
19 13.08 Ю 1 35 км 10/0
[]
+17.6 +10.4 63 +19 +19 1019.2 1000.7
20 13.08 Ю 1 35 км 4/0
[]
+15.4 +11.0 75 +16 +16 1019.8 1001.2
21 13.08 штиль 0 30 км 10/0
[]
+13.7 +11.8 88 +13 +13 1020.2 1001.5
22 13.08 Ю 1 40 км 9/0
[]
+13.7 +10.1 79 +14 +14 1020.5 1001.7
23 13.08 З 1-2
{2}
35 км ясно +11.9 +9.5 85 +12 +12 1020.9 1002.0
00 14.08 Ю 1 24 км 3/0 2000 м
[]
+11.0 +9.5 90 +11 +11 1020.8 1001.9
01 14.08 ЮЗ 2-2
{2}
29 км ясно +11.0 +9.0 87 +10 +10 1021.0 1002.0
02 14.08 ЮЗ 1-2
{2}
29 км ясно +10.6 +8.7 88 +10 +10 1021.0 1002.0
03 14.08 штиль 0 23 км 6/0
[]
+10.1 +8.7 91 +9 +9 1020.7 1001.7
04 14.08 СВ 1-1
{2}
13 км 3/0
[]
+9.4 +8.2 92 +9 +9 1020.9 1001.8
05 14.08 Ю 2-2
{2}
30 км ясно +10.2 +8.5 89 +9 +9 1020.7 1001.7
06 14.08 З 1 29 км ясно +12.2 +9.1 81 +12 +14 1021.0 1002.1 +9.2 +20.1
07 14.08 Ю 2-3
{3}
26 км ясно +15.9 +9.7 67 +16 +20 1021.0 1002.4
08 14.08 ЮЗ 2-3
{3}
23 км ясно +17.1 +9.7 62 +17 +25 1020.9 1002.3
09 14.08 ЮЗ 2 35 км 10/0
[]
+18.6 +10.0 57 +20 +25 1020.8 1002.3
10 14.08 Ю 2-4
{5}
40 км 10/0
[]
+20.9 +9.7 49 +23 +30 комфорт 1020.1 1001.8
11 14.08 ЮЗ 3 27 км 9/0 2000 м
[]
+21.7 +7.5 40 +23 +29 комфорт 1019.8 1001.5
12 14.08 ЮЗ 2-3
{7}
28 км ясно +22.6 +9.1 42 +24 +39 комфорт 1019.2 1001.0
13 14.08 З 2-4
{5}
45 км 4/4 1500 м
[]
+22.8 +10.0 44 +25 +32 комфорт 1018.8 1000.6
14 14.08 З 4-6
{6}
26 км 1/1 1500 м
[]
+22.6 +9.0 42 +24 +30 комфорт 1018.2 1000.0
15 14.08 СЗ 2-4
{6}
40 км ясно +23.0 +9.2 41 +24 +32 комфорт 1017.6 999.5
16 14.08 Ю 2-4
{4}
45 км ясно +23.7 +9.6 41 +25 +29 комфорт 1017.2 999.1
17 14.08 Ю 1-2
{3}
50 км ясно +23.3 +9.5 41 +25 +27 комфорт 1016.7 998.6
18 14.08 Ю 1 50 км ясно +22.5 +9.9 45 +24 +24 комфорт 1016.5 998.4 +12.2 +23.9
19 14.08 В 2 45 км 5/0
[]
+18.4 +11.8 65 +19 +19 1016.6 998.2
20 14.08 ЮВ 1-1
{2}
40 км ясно +16.3 +11.6 74 +17 +17 1016.9 998.4
21 14.08 ЮВ 2-3
{3}
45 км ясно +16.8 +11.0 69 +17 +17 1016.6 998.1
22 14.08 ЮВ 2-4
{5}
40 км ясно +16.9 +10.4 66 +17 +17 1016.2 997.7
23 14.08 Ю 2-3
{6}
40 км ясно +15.7 +10.5 71 +16 +16 1016.6 998.0
00 15.08 Ю 3 35 км 1/0
[]
+14.2 +10.4 78 +13 +13 1016.4 997.7
01 15.08 ЮЗ 1 35 км 9/0
[]
+13.2 +10.0 81 +13 +13 1016.1 997.4
02 15.08 Ю 2 40 км 10/0
[]
+14.1 +9.9 76 +14 +14 1015.3 996.7
03 15.08 ЮЗ 2 35 км 10/0
[]
+13.2 +9.8 80 +12 +12 1015.1 996.4
04 15.08 Ю 2 40 км 10/0 2000 м
[]
+14.6 +10.3 75 +14 +14 1014.9 996.3
05 15.08 ЮЗ 2-4
{6}
35 км в посл. час дождь {морось} 9/0 2000 м
[]
+15.1 +10.7 75 +15 +15 1014.9 996.3
06 15.08 Ю 4 40 км в посл. час дождь {морось} 10/10 1500 м
[]
+16.8 +11.1 69 +16 +16 1014.5 996.1 +13.0 +22.5 0.1
07 15.08 ЮЗ 3 45 км в посл. час дождь {морось} 10/10 1500 м
[]
+17.4 +11.5 68 +17 +17 1014.8 996.4
08 15.08 Ю 5 30 км 10/10 1440 м
[]
+19.8 +11.9 60 +21 +21 комфорт 1014.4 996.1
09 15.08 Ю 6 30 км {дождь, морось} 10/10 1500 м
[]
+21.3 +12.2 56 +23 +23 комфорт 1014.3 996.1 0.0
10 15.08 ЮЗ 5-7
{9}
30 км 9/9 1200 м
[]
+20.9 +13.1 61 +23 +24 комфорт 1014.5 996.3
11 15.08 ЮЗ 5 19 км слаб. морось {дождь} 10/10 700 м
[]
+18.6 +14.9 79 +19 +19 1015.6 997.3
12 15.08 Ю 4 30 км в посл. час дождь {морось} 10/10 1300 м
[]
+20.1 +14.5 70 +22 +22 комфорт 1015.3 997.1 0.2
13 15.08 Ю 5-7
{7}
35 км в посл. час дождь {морось} 10/10 1500 м
[]
+20.4 +14.4 68 +23 +23 комфорт 1015.2 997.0
14 15.08 ЮЗ 6 35 км 8/0
[]
+21.8 +14.1 62 +25 +27 комфорт 1014.7 996.6
15 15.08 ЮЗ 5 50 км {дождь, морось} 10/10 1500 м
[]
+20.7 +12.2 58 +23 +23 комфорт 1015.1 996.9 0.0
16 15.08 ЮЗ 5 16 км слаб. дождь 10/10 1500 м
[]
+19.4 +14.9 75 +21 +21 комфорт 1015.9 997.6
17 15.08 Ю 4-6
{8}
35 км в посл. час дождь {морось} 9/0 2000 м
[]
+17.9 +15.1 84 +18 +18 1016.2 997.8
18 15.08 Ю 2 40 км {дождь, морось} 10/0
[]
+18.5 +15.4 82 +20 +20 1016.6 998.3 +16.8 +22.4 0.3
19 15.08 ЮЗ 3 35 км 9/9 1500 м
[]
+18.2 +15.3 83 +19 +19 1017.6 999.2
20 15.08 ЮЗ 2-2
{4}
55 км в посл. час дождь {морось} 10/0
[]
+18.1 +14.6 80 +19 +19 1018.6 1000.2
21 15.08 Ю 2 50 км {дождь, морось} 10/0 2000 м
[]
+17.8 +15.0 84 +18 +18 1019.1 1000.7 0.0
22 15.08 Ю 2 50 км 10/10 1470 м
[]
+17.2 +14.3 83 +18 +18 1019.6 1001.1
23 15.08 Ю 2 55 км 10/10 1500 м
[]
+17.3 +13.8 80 +18 +18 1019.7 1001.2
00 16.08 Ю 2 45 км {дождь, морось} 10/10 1500 м
[]
+16.8 +13.7 82 +17 +17 1019.8 1001.3
01 16.08 ЮЗ 2 27 км 9/9 1380 м
[]
+15.6 +13.8 89 +15 +15 1020.0 1001.4
02 16.08 Ю 1 19 км 9/9 1230 м
[]
+14.4 +13.2 92 +15 +15 1020.4 1001.7
03 16.08 Ю 1-1
{3}
27 км ясно +14.4 +12.8 90 +15 +15 1020.0 1001.3
04 16.08 Ю 1-2
{3}
25 км ясно +13.2 +12.0 92 +13 +13 1019.8 1001.0
05 16.08 З 2-3
{3}
19 км 4/0
[]
+13.1 +12.2 94 +12 +12 1020.4 1001.6
06 16.08 В 1 22 км ясно +16.1 +13.1 82 +17 +19 1020.4 1001.8 +12.3 +18.9 0.0
07 16.08 Ю 2 24 км 5/5 1500 м
[]
+17.5 +12.7 73 +18 +20 1020.5 1002.0
08 16.08 ЮЗ 3 35 км 6/6 1500 м
[]
+18.1 +13.1 73 +18 +21 1020.5 1002.0
09 16.08 Ю 3 30 км 4/4 1500 м
[]
+19.5 +12.5 64 +21 +26 комфорт 1019.9 1001.5
10 16.08 Ю 3 23 км 10/0
[]
+21.9 +12.3 54 +24 +30 комфорт 1019.0 1000.8
11 16.08 Ю 3-5
{5}
24 км 10/0
[]
+22.5 +12.9 55 +25 +31 комфорт 1018.6 1000.4
12 16.08 ЮЗ 3 30 км 10/0
[]
+23.0 +12.6 52 +26 +32 жарко 1017.8 999.7
13 16.08 З 2 30 км 10/0
[]
+24.0 +12.8 50 +26 +33 жарко 1017.2 999.2
14 16.08 З 3 23 км 9/0
[]
+24.7 +11.7 44 +26 +31 жарко 1016.7 998.7
15 16.08 ЮЗ 2 35 км 9/0
[]
+24.7 +10.7 41 +26 +30 жарко 1016.0 998.0
16 16.08 Ю 2 50 км 9/0
[]
+25.2 +12.6 45 +27 +29 жарко 1015.3 997.4
17 16.08 ЮЗ 2 30 км 10/0
[]
+24.5 +11.5 44 +26 +27 жарко 1014.7 996.7
18 16.08 ЮЗ 2 40 км 10/0
[]
+23.6 +11.7 47 +25 +25 комфорт 1014.6 996.6 +16.0 +25.6
19 16.08 ЮВ 1 20 км 10/0
[]
+20.2 +13.3 65 +23 +23 комфорт 1014.7 996.5
20 16.08 ЮВ 2 30 км 10/0
[]
+18.4 +13.9 75 +19 +19 1014.9 996.6
21 16.08 Ю 2 30 км 10/0
[]
+17.9 +12.5 71 +18 +18 1014.8 996.4
22 16.08 Ю 1 28 км 10/0
[]
+17.6 +12.7 73 +19 +19 1014.6 996.2
23 16.08 З 2 23 км 10/0
[]
+17.3 +13.1 76 +18 +18 1014.9 996.5
00 17.08 Ю 1 30 км 10/0
[]
+17.6 +12.3 71 +19 +19 1014.1 995.7
01 17.08 ЮЗ 2 28 км 10/0
[]
+16.0 +12.6 80 +16 +16 1014.2 995.7
02 17.08 Ю 1 26 км 9/0
[]
+15.1 +12.4 84 +16 +16 1014.1 995.6
03 17.08 Ю 2 26 км 10/0
[]
+16.2 +12.5 79 +16 +16 1013.9 995.4
04 17.08 ЮЗ 2 27 км 10/0
[]
+16.0 +13.1 83 +16 +16 1013.5 995.0
05 17.08 З 2 26 км в посл. час дождь 10/0
[]
+16.0 +13.2 83 +16 +16 1013.7 995.2
06 17.08 ЮЗ 2 28 км в посл. час дождь 10/0
[]
+17.4 +13.7 79 +18 +18 1013.6 995.2 +14.5 +23.6 0.0
07 17.08 СЗ 2-2
{3}
22 км слаб. дождь 10/0
[]
+17.6 +13.8 78 +18 +20 1014.0 995.6
08 17.08 ЮЗ 1 29 км в посл. час дождь 9/0 2000 м
[]
+18.9 +14.3 75 +21 +26 комфорт 1013.9 995.6
09 17.08 ЮЗ 2 20 км слаб. дождь 9/0 2000 м
[]
+20.2 +14.4 69 +23 +29 комфорт 1014.4 996.2 0.0
10 17.08 Ю 3 18 км слаб. дождь 10/0 2000 м
[]
+21.2 +14.9 67 +24 +30 комфорт 1014.2 996.1
11 17.08 ЮЗ 3 23 км слаб. дождь {морось} 10/0 2000 м
[]
+22.5 +15.5 65 +26 +32 жарко 1013.7 995.6
12 17.08 ЮЗ 5 22 км в посл. час дождь {морось} 10/0
[]
+23.0 +13.7 56 +26 +30 жарко 1013.4 995.4 0.1
13 17.08 ЮЗ 3 28 км в посл. час дождь {морось} 10/0 2000 м
[]
+22.3 +15.4 65 +26 +31 жарко 1013.3 995.2
14 17.08 Ю 4 26 км в посл. час дождь {морось} 10/0 2000 м
[]
+23.5 +14.7 58 +26 +30 жарко 1012.6 994.6
15 17.08 З 1 30 км в посл. час дождь {морось} 9/0 2000 м
[]
+23.7 +14.8 57 +26 +31 жарко 1012.5 994.5 0.0
16 17.08 СВ 2 28 км слаб. дождь 10/0 2000 м
[]
+21.2 +15.0 68 +24 +26 комфорт 1013.1 995.0
17 17.08 СВ 3 23 км слаб. дождь {морось} 9/0 2000 м
[]
+18.5 +15.2 81 +19 +20 1013.0 994.7
18 17.08 СВ 3 24 км в посл. час дождь {морось} 9/9 1500 м
[]
+18.1 +16.2 89 +18 +18 1012.7 994.4 +17.4 +24.0 0.5
19 17.08 СВ 2 20 км слаб. дождь {морось} 10/0 2000 м
[]
+17.3 +16.0 92 +18 +18 1012.3 994.0
20 17.08 С 2 19 км в посл. час дождь {морось} 10/0
[]
+17.3 +16.2 93 +18 +18 1012.1 993.8
21 17.08 С 2 24 км {дождь, морось} 10/0
[]
+17.0 +16.0 94 +17 +17 1011.9 993.5 0.0
22 17.08 В 1 13 км 10/0
[]
+16.5 +15.7 95 +17 +17 1011.7 993.3
23 17.08 В 1 11 км 10/0
[]
+16.2 +15.5 96 +17 +17 1011.7 993.3
00 18.08 ЮЗ 2 15 км {дождь, морось} 10/0
[]
+16.2 +15.5 96 +16 +16 1011.5 993.1
01 18.08 ЮЗ 2 14 км 10/0
[]
+16.6 +15.8 95 +17 +17 1011.2 992.8
02 18.08 Ю 2 11 км 10/0
[]
+16.3 +15.6 96 +16 +16 1011.2 992.8
03 18.08 Ю 2 7000 м дымка 6/0
[]
+16.2 +15.5 96 +16 +16 1010.6 992.2
04 18.08 ЮЗ 2-2
{3}
9000 м ясно +14.9 +14.1 95 +15 +15 1010.6 992.1
05 18.08 штиль 0-1
{2}
6000 м дымка ясно +15.0 +14.5 97 +15 +15 1010.1 991.6
06 18.08 ЮЗ 2 18 км ясно +17.6 +15.4 87 +18 +19 1010.0 991.7 +14.8 +18.0 0.0
07 18.08 СЗ 1-2
{2}
23 км ясно +19.9 +15.5 76 +23 +28 комфорт 1009.5 991.4
08 18.08 З 1-2
{2}
22 км ясно +22.9 +17.3 71 +28 +36 душно 1009.1 991.2
09 18.08 Ю 5 14 км ясно +27.1 +15.7 50 +30 +36 душно 1008.5 990.8
10 18.08 ЮЗ 5-8
{9}
11 км ясно +28.5 +14.7 43 +31 +38 душно 1008.2 990.6
11 18.08 ЮЗ 6-9
{9}
12 км ясно +29.7 +14.7 40 +32 +37 душно 1008.1 990.6
12 18.08 ЮЗ 4 25 км 1/0
[]
+30.4 +14.0 37 +32 +41 жарко 1007.8 990.3
13 18.08 ЮЗ 3 29 км 8/0
[]
+29.8 +15.0 41 +32 +39 душно 1008.1 990.6
14 18.08 З 5 21 км в посл. час дождь {морось} 10/10 1500 м
[]
+26.1 +15.2 51 +29 +29 жарко 1008.9 991.1
15 18.08 ЮЗ 3 24 км {дождь, морось} 10/0 2000 м
[]
+28.4 +15.6 46 +31 +34 душно 1008.6 991.0 0.0
16 18.08 Ю 3-5
{5}
27 км 1/0
[]
+29.4 +17.8 50 +34 +37 очень
душно
1008.4 990.9
17 18.08 ЮЗ 2 22 км 9/0 2000 м
[]
+27.1 +19.2 62 +33 +33 очень
душно
1009.1 991.4
18 18.08 З 3 23 км {дождь, морось} 9/0 2000 м
[]
+26.8 +17.6 57 +31 +31 душно 1009.0 991.3 +17.7 +31.0
19 18.08 С 7 29 км 9/9 1500 м
[]
+24.0 +16.2 62 +27 +27 жарко 1010.5 992.6
20 18.08 СВ 2 27 км в посл. час дождь {морось} 10/0
[]
+21.7 +16.7 73 +26 +26 душно 1012.2 994.1
21 18.08 С 3 16 км слаб. дождь {морось} 10/10 750 м
[]
+19.6 +17.3 87 +22 +22 комфорт 1013.3 995.1 2
22 18.08 ЮВ 3 5000 м слаб. дождь {морось} 10/10 1500 м
[]
+19.1 +17.7 92 +21 +21 комфорт 1013.1 994.9
23 18.08 Ю 3 н/о {дождь, морось} 10/10 1500 м
[]
+19.5 +18.0 91 +22 +22 комфорт 1013.8 995.6
00 19.08 Ю 4 19 км {дождь, морось} 10/10 1000 м
[]
+19.4 +17.6 89 +21 +21 комфорт 1014.3 996.1 0.5
01 19.08 Ю 2-4
{6}
17 км в посл. час дождь {морось} 10/10 400 м
[]
+19.4 +17.8 90 +22 +22 комфорт 1014.9 996.7

 

Местоположение метеостанции Лар (Германия): широта 48.37 долгота 7.83 высота над уровнем моря 157 м.

В архиве по умолчанию представлена погода в Ларе за последнюю неделю. Архивные данные за месяц целиком и за предыдущие месяцы, начиная с января 2011 года, Вы можете получить, выбрав интересующий диапазон дат из раскрывающегося списка и нажав кнопку "Ввод!".


*Определитесь, кто Вы:
робот инопланетянин человек

Внимание! Время в таблицах - всемирное. Для получения местного времени необходимо прибавить поправку, которая равна 1 ч.

Смотрите также архив погоды в соседних городах и на ближайших метеорологических станциях:

Погода в Страсбурге (Франция) (25 км)
Погода во Фрайбурге (Германия) (41 км)
Погода в Фройденштадте (Германия) (44 км)
Погода в Фельдберге (Германия) (56 км)
Погода в Мененгейме (Франция) (59 км)
Погода на Клиппенеке (Германия) (74 км)
Погода в Райнштеттене (Германия) (76 км)
Погода в Мёлине (Швейцария) (88 км)
Погода в Халлау (Швейцария) (88 км)
Погода в Евроаэропорту (Франция) (89 км)

Пояснения к столбцам:

Ветер - указаны скорость ветра в м/с - средняя за 10 мин, порывы в срок и между сроками (в фигурных скобках) и направление, откуда дует ветер: С - северный, СВ - северо-восточный, В - восточный, ЮВ - юго-восточный, Ю - южный, ЮЗ - юго-западный, З - западный, СЗ - северо-западный.
Видимость - горизонтальная дальность видимости в метрах или километрах. При видимости от 1 до 10 км при отсутствии осадков обычно наблюдается дымка, при ухудшении видимости до 1 км и менее - туман. В сухую погоду видимость может ухудшаться дымом, пылью или мглою.
Явления - указаны атмосферные явления, наблюдавшиеся в срок или в последний час перед сроком; фигурными скобками обозначены явления, наблюдавшиеся между сроками (за 1-3 часа до срока); квадратными скобками обозначены град или гололедные отложения с указанием их диаметра в мм.
Облачность - указаны через наклонную черту общая и нижняя облачность в баллах и высота нижней границы облаков в метрах; квадратными скобками обозначены формы облаков: Ci - перистые, Cs - перисто-слоистые, Cc - перисто-кучевые, Ac - высококучевые, As - высокослоистые, Sc - слоисто-кучевые, Ns - слоисто-дождевые, Cu - кучевые, Cb - кучево-дождевые. Подробнее классификацию облаков см. в Атласе облаков (PDF).
T - Температура воздуха - температура, измеренная на высоте 2 м над землей.
Td - Температура точки росы - температура, при понижении до которой содержащийся в воздухе водяной пар достигнет насыщения.
f - Относительная влажность воздуха - влажноcть воздуха, измеренная на высоте 2 м над землей.
Te - Эффективная температура - температура, которую ощущает одетый по сезону человек в тени. Характеристика душности погоды. При расчете учитывается влияние влажности воздуха и скорости ветра на теплоощущения человека.
Tes - Эффективная температура на солнце - температура, которую ощущает человек, с поправкой на солнечный нагрев. Характеристика знойности погоды. Зависит от высоты солнца над горизонтом, облачности и скорости ветра. Ночью, в пасмурную погоду, а также при ветре 12 м/с и более поправка равна нулю.
P - Атмосферное давление - приведенное к уровню моря атмосферное давление.
Po - Атмосферное давление - измеренное на уровне метеостанции атмосферное давление.
Tmin - Минимальная температура - минимум температуры воздуха на высоте 2 м над землей.
Tmax - Максимальная температура - максимум температуры воздуха на высоте 2 м над землей.
R - Количество осадков - Количество выпавших осадков за период времени, мм. При наведении курсора мыши на число - период времени, за который выпало указанное количество осадков.
R24 - Количество осадков - Количество выпавших осадков за 24 часа, мм.
S - Снежный покров - Высота снежного покрова, см. При наведении курсора мыши на число - состояние снежного покрова и степень покрытия местности в баллах.